CW6761 Aldeanueva de Vera ES current weather conditions

sailwx.info

Wind from 142 at 3 knots

Air temperature 7.2° C
Dewpoint 3.8° C

Last reported at 2020-Jan-22 12:56 UTC.
Time now 2020-Jan-22 13:27 UTC

Location: N 40°08' W 005°42'.
View on Google Maps.

See reports from other nearby stations

  
Tides and Currents Weather Stations Pressure Air Temp Water Temp Dewpoint Dewpoint Depression Visibility Wind Speed Wind Dir Waves Ship Positions
date/time (UTC)wind fromknots sea level pressurealtimeterstation pressurevisibilityair tempwater tempwave heightnotes
2020-Jan-22 13:06 133 4 7.2
2020-Jan-22 13:01 171 3 7.2
2020-Jan-22 12:56 142 3 7.2
2020-Jan-22 12:51 140 3 7.2
2020-Jan-22 12:46 148 4 7.2
2020-Jan-22 12:41 095 4 7.2
2020-Jan-22 12:36 162 3 6.7
2020-Jan-22 12:31 092 3 6.7
2020-Jan-22 12:26 157 3 6.7
2020-Jan-22 12:21 126 3 6.7
2020-Jan-22 12:16 059 3 6.7
2020-Jan-22 12:11 165 3 6.1
2020-Jan-22 12:06 083 2 6.1
2020-Jan-22 12:01 166 1 6.1
2020-Jan-22 11:56 107 2 6.1
2020-Jan-22 11:51 136 3 6.1
2020-Jan-22 11:46 055 3 6.1
2020-Jan-22 11:41 169 4 6.1
2020-Jan-22 11:36 080 4 6.1
2020-Jan-22 11:31 125 4 6.1
2020-Jan-22 11:26 150 5 6.1
2020-Jan-22 11:21 131 5 6.1
2020-Jan-22 11:16 132 4 6.1
2020-Jan-22 11:11 101 4 6.1
2020-Jan-22 11:06 163 4 6.1
2020-Jan-22 11:01 159 4 6.1
2020-Jan-22 10:56 140 3 6.1
2020-Jan-22 10:51 096 5 6.1
2020-Jan-22 10:46 134 6 6.1
2020-Jan-22 10:41 095 5 6.1
2020-Jan-22 10:36 132 5 6.1
2020-Jan-22 10:31 100 5 6.1
2020-Jan-22 10:26 126 5 6.1
2020-Jan-22 10:21 086 3 6.1
2020-Jan-22 10:16 085 2 6.1
2020-Jan-22 10:11 132 2 6.1
2020-Jan-22 10:06 177 3 6.1
2020-Jan-22 10:01 046 3 6.1
2020-Jan-22 09:56 150 4 5.6
2020-Jan-22 09:51 217 5 5.6
2020-Jan-22 09:46 150 5 6.1
2020-Jan-22 09:41 051 6 6.1
2020-Jan-22 09:36 142 6 6.1
2020-Jan-22 09:31 121 5 6.1
2020-Jan-22 09:26 087 5 6.1
2020-Jan-22 09:21 157 5 6.1
2020-Jan-22 09:16 146 3 6.1
2020-Jan-22 09:11 061 4 6.1
2020-Jan-22 09:06 113 4 6.1
2020-Jan-22 09:01 132 1 6.7
2020-Jan-22 08:56 092 0 6.7
2020-Jan-22 08:51 135 4 6.7
2020-Jan-22 08:46 093 5 6.7
2020-Jan-22 08:41 049 5 6.7
2020-Jan-22 08:36 128 4 6.7
2020-Jan-22 08:31 129 2 6.7
2020-Jan-22 08:26 059 4 6.7
2020-Jan-22 08:21 129 6 6.7
2020-Jan-22 08:16 109 5 6.7
2020-Jan-22 08:11 044 5 6.7
2020-Jan-22 08:06 009 5 6.7
2020-Jan-22 08:01 076 4 6.1
2020-Jan-22 07:56 109 2 6.1
2020-Jan-22 07:51 091 2 6.1
2020-Jan-22 07:46 163 3 6.1
2020-Jan-22 07:41 096 3 6.1
2020-Jan-22 07:36 123 4 6.1
2020-Jan-22 07:31 077 4 6.1
2020-Jan-22 07:26 070 5 6.1
2020-Jan-22 07:21 096 5 6.1
2020-Jan-22 07:16 070 4 6.1
2020-Jan-22 07:11 038 5 6.1
2020-Jan-22 07:06 082 5 6.1
2020-Jan-22 07:01 086 4 6.1
2020-Jan-22 06:56 082 4 6.1
2020-Jan-22 06:51 110 4 6.1
2020-Jan-22 06:46 042 3 6.1
2020-Jan-22 06:41 135 3 6.1
2020-Jan-22 06:36 097 3 6.1
2020-Jan-22 06:31 144 0 6.1
2020-Jan-22 06:26 095 6.1
2020-Jan-22 06:21 103 6.1
2020-Jan-22 06:16 124 6.1
2020-Jan-22 06:11 067 6.7
2020-Jan-22 06:06 144 6.7
2020-Jan-22 06:01 117 1 6.7
2020-Jan-22 05:56 096 3 6.7
2020-Jan-22 05:51 130 1 6.7
2020-Jan-22 05:46 130 6.7
2020-Jan-22 05:41 069 6.7
2020-Jan-22 05:36 139 6.7
2020-Jan-22 05:31 111 6.7
2020-Jan-22 05:26 146 6.7
2020-Jan-22 05:21 113 6.7
2020-Jan-22 05:16 188 6.7
2020-Jan-22 05:11 144 6.7
2020-Jan-22 05:06 120 1 6.7
2020-Jan-22 05:01 126 3 6.7
2020-Jan-22 04:56 117 2 6.1
2020-Jan-22 04:51 144 2 6.1
2020-Jan-22 04:46 132 2 6.1
2020-Jan-22 04:41 096 2 6.1
2020-Jan-22 04:36 111 1 6.1
2020-Jan-22 04:31 139 6.1
2020-Jan-22 04:26 120 6.1
2020-Jan-22 04:21 128 6.7
2020-Jan-22 04:16 089 6.7
2020-Jan-22 04:11 144 6.7
2020-Jan-22 04:06 152 2 6.7
2020-Jan-22 04:01 137 3 6.7
2020-Jan-22 03:56 078 2 6.7
2020-Jan-22 03:51 094 1 6.7
2020-Jan-22 03:46 065 0 6.7
2020-Jan-22 03:41 109 2 6.7
2020-Jan-22 03:36 142 5 6.7
2020-Jan-22 03:31 109 5 6.7
2020-Jan-22 03:26 082 5 6.7
2020-Jan-22 03:21 113 5 6.7
2020-Jan-22 03:16 173 6 6.7
2020-Jan-22 03:11 197 3 6.7
2020-Jan-22 03:06 107 2 6.1
2020-Jan-22 03:01 116 2 6.1
2020-Jan-22 02:56 130 2 6.1
2020-Jan-22 02:51 090 1 6.1
2020-Jan-22 02:46 142 5.6
2020-Jan-22 02:41 090 5.6
2020-Jan-22 02:36 132 5.6
2020-Jan-22 02:31 134 5.0
2020-Jan-22 02:26 057 5.0
2020-Jan-22 02:21 056 5.0
2020-Jan-22 02:16 056 5.0
2020-Jan-22 02:11 078 5.0
2020-Jan-22 02:06 145 5.0
2020-Jan-22 02:01 127 5.0
2020-Jan-22 01:56 113 5.0
2020-Jan-22 01:51 124 5.6
2020-Jan-22 01:46 124 5.6
2020-Jan-22 01:41 123 5.6
2020-Jan-22 01:36 131 5.6
2020-Jan-22 01:31 131 5.6
2020-Jan-22 01:26 131 5.6
2020-Jan-22 01:21 087 5.0
2020-Jan-22 01:16 067 5.0
2020-Jan-22 01:11 066 5.0
2020-Jan-22 01:06 106 5.0
2020-Jan-22 01:01 104 5.0
2020-Jan-22 00:56 212 5.6
2020-Jan-22 00:51 194 5.6
2020-Jan-22 00:46 176 5.6
2020-Jan-22 00:41 155 5.0
2020-Jan-22 00:36 097 5.0
2020-Jan-22 00:31 117 5.0
2020-Jan-22 00:26 090 5.0
2020-Jan-22 00:21 102 5.0
2020-Jan-22 00:16 165 5.0
2020-Jan-22 00:11 151 5.0
2020-Jan-22 00:06 140 5.0
2020-Jan-22 00:01 137 5.0
2020-Jan-21 23:56 132 5.6
2020-Jan-21 23:51 144 5.6
2020-Jan-21 23:46 165 5.6
2020-Jan-21 23:41 167 5.0
2020-Jan-21 23:36 201 5.6
2020-Jan-21 23:31 177 5.6
2020-Jan-21 23:26 140 5.0
2020-Jan-21 23:21 154 5.0
2020-Jan-21 23:16 155 5.0
2020-Jan-21 23:11 179 5.0
2020-Jan-21 23:06 180 5.0
2020-Jan-21 23:01 180 5.0
2020-Jan-21 22:56 153 5.6
2020-Jan-21 22:51 147 5.6
2020-Jan-21 22:46 108 5.6
2020-Jan-21 22:41 111 5.6
2020-Jan-21 22:36 109 5.6
2020-Jan-21 22:26 110 5.6
2020-Jan-21 22:21 148 5.6
2020-Jan-21 22:16 142 1 5.6
2020-Jan-21 22:11 155 3 5.6
2020-Jan-21 22:06 178 1 6.1
2020-Jan-21 22:01 117 2 6.1
2020-Jan-21 21:56 105 3 6.1
2020-Jan-21 21:51 092 1 6.1
2020-Jan-21 21:46 124 0 6.1
2020-Jan-21 21:41 103 6.1
2020-Jan-21 21:36 078 5.6
2020-Jan-21 21:31 076 5.6
2020-Jan-21 21:26 300 5.6
2020-Jan-21 21:21 248 5.6
2020-Jan-21 21:16 248 5.6
2020-Jan-21 21:11 249 5.6
2020-Jan-21 21:06 240 5.6
2020-Jan-21 21:01 309 5.6
2020-Jan-21 20:56 309 5.6
2020-Jan-21 20:51 309 5.6
2020-Jan-21 20:46 309 5.6
2020-Jan-21 20:41 309 5.6
2020-Jan-21 20:36 309 5.6
2020-Jan-21 20:31 309 5.6
2020-Jan-21 20:26 309 5.6
2020-Jan-21 20:21 309 5.6
2020-Jan-21 20:16 275 5.6
2020-Jan-21 20:11 265 5.6
2020-Jan-21 20:06 223 5.6
2020-Jan-21 20:01 223 5.6
2020-Jan-21 19:56 223 5.6
2020-Jan-21 19:51 223 5.6
2020-Jan-21 19:46 223 5.6
2020-Jan-21 19:41 223 5.6
2020-Jan-21 19:36 223 5.6
2020-Jan-21 19:31 223 5.6
2020-Jan-21 19:26 223 5.6
2020-Jan-21 19:21 223 5.6
2020-Jan-21 19:16 223 5.6
2020-Jan-21 19:11 223 5.6
2020-Jan-21 19:06 223 5.6
2020-Jan-21 19:01 222 5.6
2020-Jan-21 18:56 222 5.6
2020-Jan-21 18:51 221 5.6
2020-Jan-21 18:46 221 6.1
2020-Jan-21 18:41 221 6.1
2020-Jan-21 18:36 221 6.1
2020-Jan-21 18:31 221 6.1
2020-Jan-21 18:26 221 6.1
2020-Jan-21 18:21 221 6.1
2020-Jan-21 18:16 221 6.1
2020-Jan-21 18:11 220 6.1
2020-Jan-21 18:06 355 6.1
2020-Jan-21 18:01 355 6.1
2020-Jan-21 17:56 337 6.1
2020-Jan-21 17:51 336 6.1
2020-Jan-21 17:46 341 6.1
2020-Jan-21 17:41 351 6.1
2020-Jan-21 17:36 014 6.1
2020-Jan-21 17:31 027 6.1
2020-Jan-21 17:26 044 6.1
2020-Jan-21 17:21 351 6.1
2020-Jan-21 17:16 351 6.1
2020-Jan-21 17:11 350 6.1
2020-Jan-21 17:06 005 6.1
2020-Jan-21 17:01 349 6.7
2020-Jan-21 16:56 342 6.7
2020-Jan-21 16:51 355 6.7
2020-Jan-21 16:46 360 6.7
2020-Jan-21 16:41 078 6.7
2020-Jan-21 16:36 163 6.7
2020-Jan-21 16:31 163 6.7
2020-Jan-21 16:26 163 6.7
2020-Jan-21 16:21 163 6.7
2020-Jan-21 16:16 163 6.7
2020-Jan-21 16:11 163 6.7
2020-Jan-21 16:06 163 6.7
2020-Jan-21 16:01 163 6.7
2020-Jan-21 15:56 163 6.7
2020-Jan-21 15:51 174 6.7
2020-Jan-21 15:46 187 7.2
2020-Jan-21 15:41 198 7.2
2020-Jan-21 15:36 176 7.2
2020-Jan-21 15:31 175 7.2
2020-Jan-21 15:26 171 7.2
2020-Jan-21 15:21 191 7.2
2020-Jan-21 15:16 192 7.2
2020-Jan-21 15:11 191 7.2
2020-Jan-21 15:06 192 7.2
2020-Jan-21 15:01 191 7.2
2020-Jan-21 14:56 192 7.8
2020-Jan-21 14:51 191 7.8
2020-Jan-21 14:46 192 7.8
2020-Jan-21 14:41 192 7.8
2020-Jan-21 14:36 191 7.8
2020-Jan-21 14:31 192 7.8
2020-Jan-21 14:26 192 7.8
2020-Jan-21 14:21 191 7.2
2020-Jan-21 14:16 192 7.2
2020-Jan-21 14:11 191 7.2
2020-Jan-21 14:06 191 7.2
2020-Jan-21 14:01 191 7.2
2020-Jan-21 13:56 191 7.2
2020-Jan-21 13:51 191 7.2
2020-Jan-21 13:46 192 7.2
2020-Jan-21 13:41 191 7.2
2020-Jan-21 13:36 191 7.2
2020-Jan-21 13:31 191 7.2
2020-Jan-21 13:26 191 7.2
2020-Jan-21 13:21 192 7.2
2020-Jan-21 13:16 192 7.2
2020-Jan-21 13:11 192 7.2
2020-Jan-21 13:06 192 7.2
2020-Jan-21 13:01 191 7.2
2020-Jan-21 12:56 191 6.7
2020-Jan-21 12:51 191 6.7
2020-Jan-21 12:46 191 6.7
2020-Jan-21 12:41 191 6.7
2020-Jan-21 12:36 191 6.7
2020-Jan-21 12:31 191 6.7
2020-Jan-21 12:26 192 6.7
2020-Jan-21 12:21 194 6.7
2020-Jan-21 12:16 194 6.7
2020-Jan-21 12:11 194 6.7
2020-Jan-21 12:06 176 7.2
2020-Jan-21 12:01 175 7.2
2020-Jan-21 11:56 188 7.2
2020-Jan-21 11:51 150 7.2
2020-Jan-21 11:46 150 7.2
2020-Jan-21 11:41 156 7.2
2020-Jan-21 11:36 159 7.2
2020-Jan-21 11:31 156 7.2
2020-Jan-21 11:26 174 7.2
2020-Jan-21 11:21 184 7.2
2020-Jan-21 11:16 184 7.2
2020-Jan-21 11:11 184 6.7
2020-Jan-21 11:06 184 6.7
2020-Jan-21 11:01 169 6.7
2020-Jan-21 10:56 169 6.7
2020-Jan-21 10:51 169 6.7
2020-Jan-21 10:46 169 6.7
2020-Jan-21 10:41 169 6.7
2020-Jan-21 10:36 169 6.7
2020-Jan-21 10:31 169 6.7
2020-Jan-21 10:26 168 6.1
2020-Jan-21 10:21 171 6.1
2020-Jan-21 10:16 167 5.6
2020-Jan-21 10:11 167 5.6
2020-Jan-21 10:06 167 5.6
2020-Jan-21 10:01 238 5.0
2020-Jan-21 09:56 287 4.4
2020-Jan-21 09:51 321 3.9
2020-Jan-21 09:46 321 0 3.9
2020-Jan-21 09:41 321 0 3.3
2020-Jan-21 09:36 319 3.3
2020-Jan-21 09:31 319 3.3
2020-Jan-21 09:26 319 2.8
2020-Jan-21 09:21 319 2.8
2020-Jan-21 09:16 319 2.8
2020-Jan-21 09:11 319 2.8
2020-Jan-21 09:06 319 2.8
2020-Jan-21 09:01 319 2.8
2020-Jan-21 08:56 319 2.8
2020-Jan-21 08:51 016 2.8
2020-Jan-21 08:46 016 2.8
2020-Jan-21 08:41 016 2.8
2020-Jan-21 08:36 016 0 2.2
2020-Jan-21 08:31 016 1 2.2
2020-Jan-21 08:26 351 0 2.2
2020-Jan-21 08:21 351 0 2.2
2020-Jan-21 08:16 351 2 2.2
2020-Jan-21 08:11 351 1 2.2
2020-Jan-21 08:06 005 0 2.2
2020-Jan-21 08:01 005 0 2.2
2020-Jan-21 07:56 005 0 2.2
2020-Jan-21 07:51 005 0 2.2
2020-Jan-21 07:46 327 2.2
2020-Jan-21 07:41 327 2.8
2020-Jan-21 07:36 327 2.8
2020-Jan-21 07:31 327 2.8
2020-Jan-21 07:26 327 2.8
2020-Jan-21 07:21 327 3.3
2020-Jan-21 07:16 316 3.3
2020-Jan-21 07:11 316 3.9
2020-Jan-21 07:06 316 3.9
2020-Jan-21 07:01 316 3.9
2020-Jan-21 06:56 344 3.3
2020-Jan-21 06:51 344 3.3
2020-Jan-21 06:46 344 3.3
2020-Jan-21 06:41 344 3.3
2020-Jan-21 06:36 344 3.3
2020-Jan-21 06:31 344 3.3
2020-Jan-21 06:26 344 3.3
2020-Jan-21 06:21 344 3.9
2020-Jan-21 06:16 344 3.9
2020-Jan-21 06:11 344 3.9
2020-Jan-21 06:06 345 3.9
2020-Jan-21 06:01 345 3.9
2020-Jan-21 05:56 345 3.9
2020-Jan-21 05:51 345 3.9
2020-Jan-21 05:46 345 3.9
2020-Jan-21 05:41 345 3.9
2020-Jan-21 05:36 345 3.9
2020-Jan-21 05:31 344 3.9
2020-Jan-21 05:26 344 3.9
2020-Jan-21 05:21 344 3.9
2020-Jan-21 05:16 344 3.9
2020-Jan-21 05:11 344 3.9
2020-Jan-21 05:06 344 3.9
2020-Jan-21 05:01 344 3.9
2020-Jan-21 04:56 344 4.4
2020-Jan-21 04:51 344 4.4
2020-Jan-21 04:46 344 4.4
2020-Jan-21 04:41 344 4.4
2020-Jan-21 04:36 345 4.4
2020-Jan-21 04:31 345 4.4
2020-Jan-21 04:26 345 4.4
2020-Jan-21 04:21 345 4.4
2020-Jan-21 04:16 345 4.4
2020-Jan-21 04:11 345 4.4
2020-Jan-21 04:06 345 4.4
2020-Jan-21 04:01 348 4.4
2020-Jan-21 03:56 348 4.4
2020-Jan-21 03:51 351 4.4
2020-Jan-21 03:46 060 4.4
2020-Jan-21 03:41 060 4.4
2020-Jan-21 03:36 060 4.4
2020-Jan-21 03:31 060 4.4
2020-Jan-21 03:26 060 4.4
2020-Jan-21 03:21 060 4.4
2020-Jan-21 03:16 060 4.4
2020-Jan-21 03:11 061 4.4
2020-Jan-21 03:06 061 4.4
2020-Jan-21 03:01 061 4.4
2020-Jan-21 02:56 061 4.4
2020-Jan-21 02:51 068 4.4
2020-Jan-21 02:46 005 4.4
2020-Jan-21 02:41 005 4.4
2020-Jan-21 02:36 355 4.4
2020-Jan-21 02:31 005 4.4
2020-Jan-21 02:26 086 4.4
2020-Jan-21 02:21 109 4.4
2020-Jan-21 02:16 109 4.4
2020-Jan-21 02:11 109 4.4
2020-Jan-21 02:06 114 4.4
2020-Jan-21 02:01 107 3.9
2020-Jan-21 01:56 333 3.9
2020-Jan-21 01:51 333 4.4
2020-Jan-21 01:46 333 4.4
2020-Jan-21 01:41 334 4.4
2020-Jan-21 01:36 333 4.4
2020-Jan-21 01:31 331 4.4
2020-Jan-21 01:26 331 5.0
2020-Jan-21 01:21 332 5.0
2020-Jan-21 01:16 331 5.0
2020-Jan-21 01:11 287 5.0
2020-Jan-21 01:06 284 5.0
2020-Jan-21 01:01 350 5.0
2020-Jan-21 00:56 350 5.0
2020-Jan-21 00:51 351 5.0
2020-Jan-21 00:46 128 5.0
2020-Jan-21 00:41 033 5.0
2020-Jan-21 00:36 360 5.0
2020-Jan-21 00:31 319 5.0
2020-Jan-21 00:26 267 5.0
2020-Jan-21 00:21 265 5.0
2020-Jan-21 00:16 265 5.0
2020-Jan-21 00:11 265 5.0
2020-Jan-21 00:06 265 5.0
2020-Jan-21 00:01 265 4.4
2020-Jan-20 23:56 349 4.4
2020-Jan-20 23:51 349 4.4
2020-Jan-20 23:46 349 5.0
2020-Jan-20 23:41 349 5.0
2020-Jan-20 23:36 348 4.4
2020-Jan-20 23:31 328 4.4
2020-Jan-20 23:26 328 4.4
2020-Jan-20 23:21 322 4.4
2020-Jan-20 23:16 317 4.4
2020-Jan-20 23:11 308 4.4
2020-Jan-20 23:06 308 4.4
2020-Jan-20 23:01 308 3.9
2020-Jan-20 22:56 256 3.9
2020-Jan-20 22:51 350 3.9
2020-Jan-20 22:46 350 3.9
2020-Jan-20 22:41 348 3.9
2020-Jan-20 22:36 355 3.3
2020-Jan-20 22:31 009 3.3
2020-Jan-20 22:26 009 3.3
2020-Jan-20 22:21 005 3.3
2020-Jan-20 22:16 005 3.3
2020-Jan-20 22:11 010 3.3
2020-Jan-20 22:06 010 3.3
2020-Jan-20 22:01 005 3.3
2020-Jan-20 21:56 344 3.3
2020-Jan-20 21:51 338 3.3
2020-Jan-20 21:46 331 3.3
2020-Jan-20 21:41 328 3.3
2020-Jan-20 21:36 327 3.3
2020-Jan-20 21:31 327 3.3
2020-Jan-20 21:26 327 3.3
2020-Jan-20 21:21 327 3.3
2020-Jan-20 21:16 327 3.9
2020-Jan-20 21:11 327 3.9
2020-Jan-20 21:06 327 3.9
2020-Jan-20 21:01 327 3.9
2020-Jan-20 20:56 327 3.9
2020-Jan-20 20:51 327 3.9
2020-Jan-20 20:46 327 4.4
2020-Jan-20 20:41 327 4.4
2020-Jan-20 20:36 327 4.4
2020-Jan-20 20:31 327 4.4
2020-Jan-20 20:26 327 4.4
2020-Jan-20 20:21 327 4.4
2020-Jan-20 20:16 325 4.4
2020-Jan-20 20:11 302 4.4
2020-Jan-20 20:06 302 4.4
2020-Jan-20 20:01 302 4.4
2020-Jan-20 19:56 302 4.4
2020-Jan-20 19:51 302 4.4
2020-Jan-20 19:46 301 4.4
2020-Jan-20 19:41 301 4.4
2020-Jan-20 19:36 302 4.4
2020-Jan-20 19:31 302 4.4
2020-Jan-20 19:26 302 4.4
2020-Jan-20 19:21 302 4.4
2020-Jan-20 19:16 302 4.4
2020-Jan-20 19:11 301 4.4
2020-Jan-20 19:06 301 4.4
2020-Jan-20 19:01 301 4.4
2020-Jan-20 18:56 301 4.4
2020-Jan-20 18:51 275 5.0
2020-Jan-20 18:46 223 5.0
2020-Jan-20 18:41 213 5.0
2020-Jan-20 18:36 220 5.0
2020-Jan-20 18:31 220 4.4
2020-Jan-20 18:26 284 5.0
2020-Jan-20 18:21 284 5.0
2020-Jan-20 18:16 287 5.0
2020-Jan-20 18:11 287 5.0
2020-Jan-20 18:06 287 5.0
2020-Jan-20 18:01 286 5.0
2020-Jan-20 17:56 284 5.0
2020-Jan-20 17:51 284 5.0
2020-Jan-20 17:46 284 5.0
2020-Jan-20 17:41 284 5.6
2020-Jan-20 17:36 283 5.6
2020-Jan-20 17:31 219 5.6
2020-Jan-20 17:26 219 1 5.6
2020-Jan-20 17:21 211 0 5.6
2020-Jan-20 17:16 196 5.6
2020-Jan-20 17:11 205 5.6
2020-Jan-20 17:06 205 5.6
2020-Jan-20 17:01 207 5.6
2020-Jan-20 16:56 242 5.6
2020-Jan-20 16:51 243 5.6
2020-Jan-20 16:46 250 5.6
2020-Jan-20 16:41 250 5.6
2020-Jan-20 16:36 250 5.6
2020-Jan-20 16:31 248 5.6
2020-Jan-20 16:26 248 5.6
2020-Jan-20 16:21 248 5.6
2020-Jan-20 16:16 248 6.1
2020-Jan-20 16:11 248 6.1
2020-Jan-20 16:06 250 6.1
2020-Jan-20 16:01 246 6.1
2020-Jan-20 15:56 246 6.1
2020-Jan-20 15:51 246 6.1
2020-Jan-20 15:46 246 6.1
2020-Jan-20 15:41 246 6.1
2020-Jan-20 15:36 207 0 6.1
2020-Jan-20 15:31 202 0 6.1
2020-Jan-20 15:26 191 2 6.1
2020-Jan-20 15:21 194 2 6.1
2020-Jan-20 15:16 209 1 6.1
2020-Jan-20 15:11 041 0 6.1
2020-Jan-20 15:06 040 1 6.1
2020-Jan-20 15:01 040 0 6.1
2020-Jan-20 14:56 117 0 6.1
2020-Jan-20 14:51 096 0 6.1
2020-Jan-20 14:46 348 0 6.7
2020-Jan-20 14:41 266 0 6.7
2020-Jan-20 14:36 182 6.7
2020-Jan-20 14:31 180 6.7
2020-Jan-20 14:26 180 0 6.1
2020-Jan-20 14:21 182 0 6.7
2020-Jan-20 14:16 182 0 6.1
2020-Jan-20 14:11 182 1 6.7
2020-Jan-20 14:06 225 1 6.7
2020-Jan-20 14:01 140 0 6.7
2020-Jan-20 13:56 188 1 6.7
2020-Jan-20 13:51 187 0 6.1
2020-Jan-20 13:46 188 0 6.1
2020-Jan-20 13:41 186 1 6.1
2020-Jan-20 13:36 187 1 6.1
2020-Jan-20 13:31 164 1 5.6
2020-Jan-20 13:26 155 1 5.6
2020-Jan-20 13:21 200 2 5.6
2020-Jan-20 13:16 212 3 5.6
2020-Jan-20 13:11 184 2 5.6
2020-Jan-20 13:06 188 3 5.6
2020-Jan-20 13:01 196 2 6.1